BEIDOU 7 (C07)

Last updated on Dec. 12, 2019, 4:25 a.m. UTC

1 37256U 10068A   19345.28353644 -.00000227  00000-0  10000-3 0  9991
2 37256  51.7987 300.5748 0071749 210.8923 149.2497  1.00265963 32948
UTC
Height (km)
Latitude
Longitude
Inclination
Orbital Period
UTC large
Height (km)
Speed (km/s)
/
Latitude / Longitude
Inclination (degrees)
Orbital Period (minutes)
Azimuth
Elevation
Range (km)
Doppler Factor
iOS Compass Heading
iOS Angle

Next 30 passes for location: Hong Kong

Rise time Rise Azimuth (degrees) Set time Set Azimuth (degrees) Duration Max altitude (degrees)

No matching passes for this satellites